Regional Weather Roundup
Issued by NWS State College, PA

Current Version | Previous Version | Text Only | Print | Product List | Glossary On
Versions: 1 2 3 4 5 6 7 8 9 10 11 12 13 14 15 16 17 18 19 20 21 22 23 24 25 26 27 28 29 30 31 32 33 34 35 36 37 38 39 40 41 42 43 44 45 46 47 48 49 50
000
ASUS41 KCTP 070010
RWRCTP

REGIONAL WEATHER ROUNDUP
NATIONAL WEATHER SERVICE STATE COLLEGE PA
700 PM EST SAT MAR 06 2021

Note: "fair" indicates few or no clouds below 12,000 feet with no
significant weather and/or obstructions to visibility.

* = STATION THAT DOES NOT REPORT PRECIPITATION /E.G. RAIN...SNOW...ETC/
    THUNDER OR FOG.

PAZ002>004-007>009-013>016-020>023-029>032-070100-
WESTERN PENNSYLVANIA

CITY           SKY/WX    TMP DP  RH WIND       PRES   REMARKS
ERIE           PTCLDY    28  16  60 W7        30.26R
MEADVILLE      PTCLDY    25  13  60 W8        30.21R
FRANKLIN       CLEAR     24  13  62 NW8       30.20R
NEW CASTLE     FAIR      28  15  58 NW8         N/A
BEAVER COUNTY  CLEAR     30  12  47 NW8       30.22R
BUTLER         CLEAR     29  14  53 NW6       30.21R
PITTSBURGH INT PTCLDY    32  11  41 NW12      30.20R
PITTSBURGH     CLEAR     32  11  41 NW9       30.18R
INDIANA*       CLEAR     30  14  51 N8        30.21R
LATROBE        CLEAR     34   9  35 NW7       30.19R
WASHINGTON CO* CLEAR     34   8  33 NW8       30.23R
$$

PAZ004>006-010>012-017>019-024>028-033>037-041-042-045-046-049>053-070100-
CENTRAL PENNSYLVANIA

CITY           SKY/WX    TMP DP  RH WIND       PRES   REMARKS
BRADFORD       FLURRIES  23  13  65 NW12      30.12R WCI  12
ST MARYS       FLURRIES  23  18  80 W13       30.16R WCI  11
DUBOIS         CLOUDY    25  13  60 W9G21     30.15R
CLEARFIELD     CLOUDY    26  16  65 NW12      30.16R
JOHNSTOWN      CLEAR     27  11  51 NW10      30.10R
SOMERSET       FAIR      28  10  47 NW8       30.12R
ALTOONA        CLEAR     30  13  49 N9        30.15R
STATE COLLEGE  FLURRIES  28  16  59 NW12G17   30.17R
REEDSVILLE     CLOUDY    32  18  55 NW15G25   30.18R
WELLSBORO      CLOUDY    23  14  68 W9G17     30.09S WCI  13
WILLIAMSPORT   CLOUDY    32  14  47 NW9       30.16R
SELINSGROVE    CLOUDY    34  17  50 W10       30.18R
FT INDIANTOWN  CLOUDY    34  17  48 W9        30.16R
CAPITAL CITY   CLOUDY    36  16  44 W12G21    30.19R
HARRISBURG     CLOUDY    35  18  49 NW18      30.18R
YORK           CLOUDY    34  16  47 NW6       30.18R
$$

PAZ038>040-043-044-047-048-054-055-060>062-067>071-070100-
EASTERN PENNSYLVANIA

CITY           SKY/WX    TMP DP  RH WIND       PRES   REMARKS
TOWANDA        CLEAR     27  12  54 CALM      30.17R
SCRANTON       CLOUDY    29  11  47 NW7       30.12R
MOUNT POCONO   CLOUDY    22   9  57 NW12      30.05R WCI  10
HAZLETON       CLOUDY    28  14  54 NW7       30.11R
LEHIGHTON      CLOUDY    32  18  55 CALM      30.16R
ALLENTOWN      CLOUDY    31  14  49 N7        30.16R
QN CITY/ALNTWN CLOUDY    32  16  51 NW7       30.17R
QUAKERTOWN*    CLOUDY    32  14  47 CALM      30.16R
PERKASIE*      CLOUDY    32  14  47 NW3       30.16R
DOYLESTOWN     CLOUDY    34  14  43 NW3       30.15R
READING        CLOUDY    35  18  49 NW8       30.15R
LANCASTER      CLOUDY    36  18  48 NW10      30.17R
COATESVILLE    CLOUDY    34  19  55 NW13      30.17R
WEST CHESTER   CLOUDY    34  21  60 NW8G17    30.17R
POTTSTOWN      CLOUDY    33  16  49 NW7       30.17R
BLUE BELL      CLOUDY    34  17  49 NW5       30.17R
NORTH PHILA    CLOUDY    36  16  44 NW5       30.19R
PHILADELPHIA   CLOUDY    37  18  46 W9        30.18R
$$



USA.gov is the U.S. government's official web portal to all federal, state and local government web resources and services.